Location: Newark
(39.5222°N, 119.8081°W)
Time: 00:02:19
(UTC+00:00)

ISS - Visible Passes

Search period start: 10 December 2019 00:00
Search period end: 20 December 2019 00:00
Orbit: 411 x 421 km, 51.6° (Epoch: 10 December)

Date Brightness Start Highest point End Pass type
(mag) Time Alt. Az. Time Alt. Az. Time Alt. Az.
10 Dec -3.8 01:58:01 10° NW 02:01:23 88° SW 02:03:13 25° SE visible
11 Dec -3.6 01:09:36 10° NW 01:12:53 52° NE 01:16:11 10° ESE visible
11 Dec -0.9 02:47:10 10° W 02:49:20 16° SW 02:51:07 12° SSW visible
12 Dec -1.6 01:58:04 10° WNW 02:01:00 28° SW 02:03:56 10° SSE visible
13 Dec -2.8 01:09:20 10° WNW 01:12:36 52° SW 01:15:52 10° SE visible
15 Dec -0.5 01:09:45 10° W 01:12:04 18° SW 01:14:23 10° S visible
19 Dec -0.9 14:37:15 10° S 14:39:54 22° SE 14:42:35 10° E visible
